{"data":{"norad_id":66009,"intl_designator":"2025-232E","name":"STARLINK-35276","alt_names":[],"object_type":"PAYLOAD","status":"ACTIVE","operator":null,"country":"US","launch_date":"2025-10-16","launch_site_code":"AFETR","launch_vehicle":null,"mission":null,"orbit_class":"UNKNOWN","rcs_meters":null,"size_class":null,"mass_kg":null,"dimensions":null,"purposes":["comms"],"wikipedia_slug":null,"has_3d_model":false,"image_url":null,"decayed_at":null,"tle_current":{"epoch":"2026-09-20T05:32:20.700096Z","epoch_age_seconds":126379,"freshness":"FRESH","line1":"1 66009U 25232E   26263.23079514  .00009720  00000+0  29848-3 0  9996","line2":"2 66009  53.1581 278.6637 0001840  77.9993 282.1216 15.34397484 53224","mean_motion":15.34397484,"eccentricity":0.000184,"inclination_deg":53.1581,"raan_deg":278.6637,"arg_perigee_deg":77.9993,"mean_anomaly_deg":282.1216,"bstar":0.00029848,"rev_number":5322,"period_min":93.847911966467,"perigee_km":461.45200231938,"apogee_km":463.96943427971,"semimajor_km":6840.8477182995,"source":"CELESTRAK","updated_at":"2026-09-21T09:00:35.768920Z"}}}